TimeEST,TemperatureF,Dew PointF,Humidity,Sea Level PressureIn,VisibilityMPH,Wind Direction,Wind SpeedMPH,Gust SpeedMPH,PrecipitationIn,Events,Conditions,WindDirDegrees,DateUTC
12:54 AM,42.1,24.1,49,30.27,10.0,NW,6.9,-,N/A,,Overcast,320,2013-01-15 05:54:00
1:54 AM,41.0,23.0,49,30.27,10.0,NNW,9.2,-,N/A,,Overcast,340,2013-01-15 06:54:00
2:54 AM,39.9,24.1,53,30.27,10.0,NNW,10.4,-,0.00,,Overcast,330,2013-01-15 07:54:00
3:54 AM,39.0,24.1,55,30.24,10.0,NNW,6.9,-,N/A,,Overcast,340,2013-01-15 08:54:00
4:54 AM,39.0,24.1,55,30.24,10.0,NNW,5.8,-,N/A,,Overcast,340,2013-01-15 09:54:00
5:54 AM,37.9,23.0,55,30.24,10.0,North,8.1,-,N/A,,Overcast,350,2013-01-15 10:54:00
6:54 AM,37.0,23.0,57,30.27,10.0,NNW,9.2,-,N/A,,Mostly Cloudy,330,2013-01-15 11:54:00
7:54 AM,37.0,23.0,57,30.30,10.0,NNW,10.4,-,N/A,,Mostly Cloudy,340,2013-01-15 12:54:00
8:54 AM,37.0,23.0,57,30.31,10.0,NNW,8.1,-,N/A,,Mostly Cloudy,340,2013-01-15 13:54:00
9:54 AM,37.9,23.0,55,30.32,10.0,North,8.1,-,N/A,,Mostly Cloudy,360,2013-01-15 14:54:00
10:54 AM,39.9,24.1,53,30.31,10.0,North,6.9,-,N/A,,Mostly Cloudy,350,2013-01-15 15:54:00
11:54 AM,39.9,24.1,53,30.27,10.0,NNW,4.6,-,N/A,,Mostly Cloudy,340,2013-01-15 16:54:00
12:54 PM,41.0,23.0,49,30.27,10.0,North,4.6,-,N/A,,Overcast,350,2013-01-15 17:54:00
1:54 PM,41.0,24.1,51,30.27,10.0,WNW,3.5,-,N/A,,Overcast,300,2013-01-15 18:54:00
2:54 PM,41.0,24.1,51,30.26,10.0,Calm,Calm,-,N/A,,Overcast,0,2013-01-15 19:54:00
3:54 PM,41.0,24.1,51,30.24,10.0,Calm,Calm,-,N/A,,Mostly Cloudy,0,2013-01-15 20:54:00
4:54 PM,39.9,24.1,53,30.26,10.0,NW,5.8,-,N/A,,Mostly Cloudy,320,2013-01-15 21:54:00
5:54 PM,39.9,21.9,49,30.27,10.0,NW,5.8,-,N/A,,Mostly Cloudy,320,2013-01-15 22:54:00
6:54 PM,39.0,21.9,50,30.28,10.0,North,8.1,-,N/A,,Mostly Cloudy,350,2013-01-15 23:54:00
7:54 PM,37.0,21.9,54,30.28,10.0,North,6.9,-,N/A,,Mostly Cloudy,360,2013-01-16 00:54:00
8:54 PM,37.0,21.9,54,30.27,10.0,North,8.1,-,N/A,,Mostly Cloudy,10,2013-01-16 01:54:00
9:54 PM,36.0,21.9,57,30.27,10.0,North,6.9,-,N/A,,Mostly Cloudy,360,2013-01-16 02:54:00
10:54 PM,35.1,21.9,59,30.25,10.0,NNE,4.6,-,N/A,,Mostly Cloudy,20,2013-01-16 03:54:00
11:54 PM,35.1,23.0,61,30.25,10.0,NNE,3.5,-,N/A,,Mostly Cloudy,20,2013-01-16 04:54:00